Weather in Asahikawa

Japan     43°46′32″N   142°22′01″E
temp.,
°C
wind,
m/s
gust,
m/s
humid.,
%
clouds,
%
prec.,
mm/h
press.,
hPa
HPBL,
m
8 may, sat
sat800:00+12s1259100 0.0 100280
03:00+11sw1264100 0.0 100056
06:00+12ssw2464100 0.0 1000234
09:00+12sw2880100 0.9 1000799
12:00+16wsw611477 1.1 10001984
15:00+16wsw712400 1.1 10011667
18:00+13wsw48585 0.0 1003833
21:00+10s24695 0.0 1005152
9 may, sun
sun900:00+9sse12685 0.0 100553
03:00+8se116613 0.0 100330
06:00+10ese1261100 0.0 1002140
09:00+17s3634100 0.0 9991209
12:00+12s0580100 3.3 998400
15:00+11ssw1579100 11.8 997440
18:00+11sw368549 1.9 997390
21:00+8w269577 4.4 998443
10 may, mon
mon1000:00+7sw3786100 0.5 999813
03:00+7sse2589100 1.1 998334
06:00+7s1491100 1.4 998605
09:00+6sw2490100 1.9 998802
12:00+7wsw3688100 0.5 9991090
15:00+4w51094100 2.6 1002852
18:00+4w4996100 0.6 1005807
21:00+4w51096100 1.0 10071043
11 may, tue
tue1100:00+4w4997100 0.6 1009811
03:00+4w3796100 0.9 1010814
06:00+5wsw2594100 0.2 1012678
09:00+5w2490100 0.4 1013610
12:00+7w2283100 0.1 1014685
15:00+7wnw1181100 0.4 1014458
18:00+7wnw1290100 0.4 1016150
21:00+4nne2389100 0.4 1018307
12 may, wed
wed1200:00+4nne2289100 0.0 1019280
03:00+4ne128871 0.0 1020192
06:00+4ene118387 0.0 1022246
09:00+6s1282100 0.0 1022438
12:00+10ssw126598 0.1 10211055
15:00+11ssw2359100 0.2 10201283
18:00+10w1267100 0.0 1021248
21:00+8sw1281100 0.0 1021111